Back to catalog

TSAT-1A

AliveScienceVLEO
NORAD 59442·PAYLOAD·🇮🇳 India

Launched Apr 7, 2024 from Cape Canaveral Space Force Station

Loading…

Next Passes (next 24 hours)

TLE

FreshSource: Space-Track

Epoch: Sep 14, 2026, 15:47 UTC

1 59442U 24066A   26257.65764443  .00010480  00000-0  30953-3 0  9999
2 59442  45.6171 351.9682 0012170 264.4733  95.4774 15.35174725135526

Track TSAT-1A in real time with AllMySat

Download on the App Store